Dewpoint
66 69 74 74 74 74 75 75 75 75 75 75 75 75 75 76 75 76 76 75 75 75 75 74 74 74 73 74 74 73 73 73 73 73 73 72 72 72 74 74 74 70 74
66 68 73 74 74 74 75 76 75 75 75 74 75 76 75 76 75 75 75 75 75 75 74 75 74 74 74 73 73 73 73 73 73 72 72 73 73 73 73 72 70 72 74
63 65 70 73 74 74 75 76 75 75 75 75 75 76 75 75 75 75 75 75 75 75 75 75 74 74 74 74 73 73 73 73 73 72 72 69 68 73 73 73 74 74 74
66 68 66 72 74 75 75 76 75 75 75 75 75 75 75 75 75 75 75 75 75 75 75 75 74 73 73 73 73 73 72 72 72 71 70 67 66 73 73 73 73 74 73
69 71 72 74 74 75 75 75 75 74 75 75 74 74 74 74 74 74 75 75 75 75 74 73 73 73 74 74 74 74 73 71 69 69 66 71 71 71 72 73 73 72 72
69 71 73 75 75 75 75 75 75 75 74 74 74 74 74 74 74 74 75 75 74 74 74 74 74 74 74 73 73 73 72 72 71 64 65 66 70 73 72 71 70 73 72
69 69 71 75 75 75 75 75 75 75 74 74 74 74 74 74 74 74 74 74 74 74 74 74 74 74 73 72 71 71 71 71 66 64 65 69 69 71 72 72 71 72 72
66 70 71 75 75 75 75 75 74 74 74 74 74 74 74 74 75 74 75 74 75 74 74 74 73 72 72 72 73 73 72 73 66 62 63 64 72 72 71 71 71 72 72
65 68 72 73 73 75 75 75 74 74 75 74 74 74 74 73 75 74 75 74 75 75 73 73 72 72 72 73 73 74 72 72 68 65 60 61 72 70 72 73 72 72 72
66 66 70 70 73 75 75 76 75 72 71 73 74 74 72 69 74 74 75 74 74 73 73 72 72 71 71 71 71 71 72 73 67 68 64 64 72 71 71 71 71 71 72
63 67 69 70 72 72 72 72 73 73 70 71 72 73 75 75 74 72 74 74 74 72 72 71 70 70 71 71 70 70 73 68 66 66 66 71 73 72 71 71 72 72 72
61 65 70 70 68 68 70 73 72 72 73 71 73 74 74 75 74 68 73 73 73 72 71 71 71 72 71 64 66 70 66 66 67 66 66 71 72 73 72 71 72 72 72
60 62 68 71 71 71 72 73 73 72 74 71 72 74 74 75 71 66 67 67 67 71 65 66 67 64 66 66 65 66 66 65 67 67 68 73 72 72 73 73 72 72 73
61 62 64 69 73 73 73 73 72 72 70 71 70 70 71 73 67 67 65 66 66 64 65 64 64 69 69 69 67 66 65 65 66 64 69 74 73 72 73 74 74 73 73
60 62 64 68 71 73 72 74 73 70 70 69 69 68 71 70 68 66 67 64 66 64 64 65 67 67 68 67 65 65 67 65 65 64 64 75 74 73 73 74 75 74 73
61 63 64 66 70 70 71 72 70 68 66 66 69 65 70 70 72 70 71 69 69 68 67 66 66 67 67 66 66 67 67 65 66 67 64 66 75 75 74 74 75 75 75
61 64 64 64 66 68 70 69 66 63 63 62 62 66 69 69 72 73 71 70 70 71 73 70 69 69 69 68 69 68 67 68 67 67 66 66 68 76 76 75 76 75 75
64 66 66 62 63 63 66 66 66 61 66 65 66 70 70 71 73 73 69 68 70 71 70 69 68 68 68 68 69 68 67 67 69 69 69 69 68 67 75 77 76 76 75
66 68 67 68 66 66 66 64 63 68 68 70 67 68 68 71 72 72 69 68 72 68 71 69 70 71 68 68 68 68 68 68 68 67 69 71 71 69 68 75 76 76 76
67 68 69 67 70 70 69 69 66 65 65 65 65 67 70 70 71 71 69 71 70 68 70 71 73 72 71 70 68 64 67 68 68 68 68 68 69 70 70 71 73 73 76
66 68 70 70 71 70 69 68 70 68 69 69 68 71 73 72 72 73 70 70 72 76 76 74 72 73 71 70 68 65 66 66 66 67 69 69 70 70 71 72 73 71 74
66 67 70 71 72 71 71 73 70 71 69 69 69 71 73 73 73 73 76 77 76 73 73 75 73 70 70 70 68 69 66 63 68 67 68 71 70 69 70 72 73 75 76
65 67 70 72 73 72 71 70 71 71 71 72 70 70 70 73 73 73 75 74 74 74 71 76 74 74 68 66 71 67 61 57 60 62 68 66 69 67 68 71 73 74 75
64 66 69 72 72 72 73 71 72 70 73 69 70 70 71 73 73 73 74 76 76 73 74 73 72 73 73 67 63 63 66 66 60 56 57 61 67 65 67 68 69 72 73
62 64 67 72 73 72 73 73 70 71 69 69 70 73 74 74 74 73 75 76 76 73 75 77 73 75 77 71 66 63 64 60 61 60 55 56 59 66 66 67 68 68 70
61 63 65 71 73 73 73 74 73 72 72 70 71 70 69 69 70 75 74 77 77 76 75 79 77 76 77 77 74 69 63 59 56 55 54 57 60 68 65 63 68 71 70
Lifted_Index
-1 -2 -2 -3 -3 -3 -4 -4 -3 -3 -3 -2 -3 -3 -3 -3 -3 -3 -3 -3 -3 -3 -3 -3 -3 -3 -3 -3 -3 -3 -3 -3 -3 -3 -3 -3 -3 -3 -4 -3 -3 -3 -4
-1 -2 -2 -3 -3 -3 -3 -4 -3 -3 -3 -3 -3 -3 -3 -3 -3 -3 -3 -3 -3 -3 -3 -3 -3 -3 -3 -3 -3 -3 -3 -3 -3 -3 -3 -3 -3 -3 -3 -3 -3 -3 -4
-2 -2 -2 -3 -3 -3 -3 -4 -3 -3 -3 -3 -3 -3 -3 -3 -3 -3 -3 -3 -3 -3 -3 -3 -3 -2 -2 -2 -2 -2 -2 -3 -3 -3 -3 -3 -3 -3 -3 -3 -3 -3 -3
-3 -3 -3 -3 -3 -3 -3 -3 -3 -3 -3 -3 -3 -3 -3 -3 -3 -3 -3 -3 -3 -3 -3 -3 -2 -2 -2 -2 -2 -2 -2 -2 -2 -2 -2 -2 -2 -3 -3 -3 -3 -3 -3
-4 -4 -3 -3 -3 -3 -3 -3 -3 -3 -3 -3 -3 -3 -3 -3 -3 -3 -3 -3 -3 -2 -2 -2 -2 -2 -2 -2 -2 -2 -2 -1 -1 -1 -1 -2 -2 -2 -3 -3 -2 -2 -2
-4 -4 -4 -4 -4 -4 -3 -3 -3 -3 -3 -3 -3 -3 -3 -3 -3 -3 -3 -3 -2 -2 -2 -2 -2 -2 -2 -2 -2 -2 -2 -1 -1 -0 -1 -1 -2 -2 -2 -2 -2 -2 -2
-4 -4 -4 -4 -4 -4 -4 -3 -3 -3 -3 -3 -3 -3 -3 -3 -3 -3 -3 -2 -2 -2 -2 -2 -2 -2 -2 -2 -2 -2 -2 -1 -0 1 0 -1 -2 -2 -2 -2 -2 -2 -2
-4 -4 -4 -4 -4 -4 -4 -3 -3 -3 -3 -3 -3 -3 -3 -3 -3 -3 -3 -2 -2 -2 -2 -2 -2 -2 -2 -2 -2 -2 -2 -2 -0 1 1 0 -1 -2 -2 -2 -2 -2 -2
-3 -4 -4 -4 -4 -4 -4 -3 -3 -2 -2 -3 -3 -3 -2 -2 -2 -3 -3 -2 -2 -2 -2 -2 -2 -2 -2 -2 -2 -2 -2 -2 -1 0 1 1 -1 -2 -2 -2 -2 -2 -2
-3 -3 -4 -4 -4 -3 -3 -3 -2 -1 -1 -2 -3 -3 -2 -1 -2 -3 -2 -2 -2 -2 -2 -2 -2 -2 -2 -2 -2 -2 -2 -2 -2 -1 0 0 -1 -2 -2 -2 -2 -2 -2
-2 -3 -4 -3 -3 -2 -2 -1 -1 -0 -0 -1 -2 -2 -2 -2 -2 -2 -2 -2 -2 -2 -1 -2 -2 -1 -1 -1 -1 -2 -2 -2 -2 -1 -1 -0 -1 -2 -2 -2 -2 -2 -2
-2 -3 -4 -3 -2 -1 -1 -1 -1 -0 -0 -1 -2 -2 -2 -3 -2 -2 -2 -2 -1 -1 -1 -1 -1 -1 -1 -1 -1 -1 -2 -2 -2 -2 -1 -1 -1 -2 -2 -2 -2 -2 -2
-2 -2 -3 -3 -3 -2 -2 -1 -1 -1 -1 -1 -1 -1 -2 -2 -2 -1 -1 -1 -0 -0 -0 -0 -0 -1 -1 -1 -1 -2 -2 -2 -2 -2 -1 -1 -1 -2 -3 -3 -2 -2 -2
-2 -2 -3 -3 -3 -3 -2 -2 -1 -1 -1 0 0 0 -1 -2 -1 -1 -0 0 1 1 1 1 0 -0 -1 -1 -1 -2 -2 -2 -2 -2 -2 -1 -1 -2 -3 -3 -3 -3 -3
-2 -2 -2 -3 -3 -3 -3 -2 -2 -1 0 1 2 2 0 -1 -1 -1 -1 -0 1 1 1 1 0 -1 -1 -1 -1 -2 -2 -2 -2 -1 -2 -2 -2 -2 -2 -3 -4 -3 -3
-3 -3 -3 -3 -3 -3 -3 -2 -1 -0 1 2 3 3 1 -1 -2 -2 -2 -1 -1 -1 -1 -1 -1 -1 -1 -1 -2 -2 -2 -2 -2 -2 -2 -2 -2 -3 -3 -3 -4 -4 -3
-3 -3 -3 -3 -3 -2 -2 -1 -0 1 2 2 3 3 1 -1 -3 -3 -3 -3 -2 -2 -2 -2 -2 -2 -2 -2 -2 -3 -3 -3 -2 -2 -2 -2 -3 -3 -3 -4 -4 -4 -3
-4 -4 -4 -3 -3 -2 -1 -1 0 1 2 2 2 1 0 -2 -3 -4 -3 -3 -3 -3 -3 -3 -3 -3 -3 -3 -3 -3 -3 -3 -3 -3 -3 -3 -3 -3 -3 -4 -4 -4 -4
-5 -4 -4 -4 -4 -3 -2 -1 -0 0 1 1 1 -0 -1 -2 -3 -3 -3 -3 -4 -3 -3 -4 -4 -3 -3 -3 -3 -3 -3 -3 -3 -3 -3 -3 -3 -3 -3 -4 -4 -4 -4
-5 -5 -5 -5 -5 -4 -4 -3 -2 -1 -1 -1 -1 -2 -2 -3 -4 -3 -3 -4 -4 -4 -4 -4 -4 -4 -4 -4 -3 -3 -3 -3 -3 -3 -3 -3 -3 -3 -4 -4 -4 -4 -4
-5 -5 -5 -5 -5 -5 -5 -4 -4 -3 -3 -3 -3 -3 -4 -4 -4 -4 -4 -4 -4 -4 -5 -5 -5 -5 -4 -4 -3 -3 -3 -3 -3 -3 -3 -3 -3 -3 -4 -4 -4 -4 -4
-4 -5 -5 -5 -5 -5 -5 -5 -5 -5 -5 -4 -4 -4 -4 -4 -4 -4 -5 -5 -5 -5 -5 -5 -5 -5 -4 -4 -4 -3 -3 -2 -3 -3 -3 -3 -3 -3 -3 -4 -4 -4 -4
-4 -4 -5 -5 -5 -5 -5 -5 -5 -5 -5 -5 -5 -4 -5 -5 -5 -5 -5 -5 -5 -5 -5 -5 -5 -5 -4 -3 -3 -3 -2 -2 -1 -2 -2 -2 -3 -3 -3 -4 -4 -4 -4
-4 -4 -5 -5 -5 -5 -5 -5 -5 -5 -5 -5 -5 -5 -5 -5 -5 -5 -6 -6 -6 -6 -5 -5 -5 -5 -4 -3 -2 -2 -1 -1 -0 -0 -0 -1 -2 -2 -3 -3 -4 -4 -4
-4 -4 -5 -5 -5 -5 -5 -5 -5 -5 -5 -5 -5 -5 -5 -6 -6 -6 -6 -6 -6 -6 -6 -5 -5 -5 -5 -4 -3 -2 -1 0 1 1 1 1 -1 -2 -3 -3 -3 -4 -4
-4 -4 -5 -6 -6 -6 -6 -6 -6 -6 -6 -6 -6 -6 -6 -6 -6 -6 -6 -6 -7 -6 -6 -6 -6 -5 -5 -5 -4 -3 -1 0 1 2 2 1 -1 -2 -2 -2 -3 -4 -4